Wind from 317 at 6 knots gusting 12

Air temperature 19.4° C
Dewpoint 14.5° C

Last reported at 2014-Apr-20 10:46 UTC.
Time now 2014-Apr-20 11:40 UTC

Location: N 39°56' E 004°08'.
View on Google Maps.

See reports from other nearby stations

Tides Stations Pressure Air Temp Water Temp Dewpoint Dewpoint depression Visibility Wind Speed Wind Dir Waves Ship positions

  
sailing weather and tide predictions

DW4005 Mahon ES weather

date/time (UTC)wind fromknots sea level pressurealtimeterstation pressurevisibilityair tempwater tempwave heightnotes
2014-Apr-20 10:46 317 6 gusting 12 19.4
2014-Apr-20 10:31 278 1 gusting 6 19.4
2014-Apr-20 10:16 264 1 gusting 10 18.9
2014-Apr-20 10:01 203 17.8
2014-Apr-20 09:46 214 17.8
2014-Apr-20 09:31 123 0 gusting 9 17.2
2014-Apr-20 09:16 159 17.8
2014-Apr-20 09:01 167 17.2
2014-Apr-20 08:46 183 3 gusting 8 17.2
2014-Apr-20 08:31 164 3 gusting 13 17.2
2014-Apr-20 08:16 169 5 gusting 7 17.2
2014-Apr-20 08:01 165 2 gusting 10 17.2
2014-Apr-20 07:45 152 3 gusting 10 17.2
2014-Apr-20 07:31 117 5 gusting 11 17.2
2014-Apr-20 07:15 146 0 gusting 8 16.7
2014-Apr-20 07:00 136 16.7
2014-Apr-20 06:45 136 16.7
2014-Apr-20 06:30 138 0 gusting 7 16.1
2014-Apr-20 06:15 142 0 gusting 6 16.1
2014-Apr-20 06:00 135 2 gusting 9 16.1
2014-Apr-20 05:45 118 2 gusting 11 16.1
2014-Apr-20 05:30 168 1 gusting 7 15.6
2014-Apr-20 05:15 147 1 gusting 10 15.6
2014-Apr-20 05:00 128 15.6
2014-Apr-20 04:45 138 1 gusting 9 15.6
2014-Apr-20 04:30 144 5 gusting 13 15.0
2014-Apr-20 04:15 136 5 gusting 11 15.0
2014-Apr-20 04:00 157 4 gusting 16 15.0
2014-Apr-20 03:45 132 6 gusting 12 15.0
2014-Apr-20 03:30 140 6 gusting 13 15.0
2014-Apr-20 03:15 152 6 gusting 12 15.0
2014-Apr-20 03:00 142 3 gusting 13 15.0
2014-Apr-20 02:45 159 5 gusting 11 15.0
2014-Apr-20 02:30 161 5 gusting 13 15.0
2014-Apr-20 02:15 137 5 gusting 10 15.0
2014-Apr-20 02:00 167 5 gusting 10 15.0
2014-Apr-20 01:45 149 15.0
2014-Apr-20 01:30 150 14.4
2014-Apr-20 01:15 150 14.4
2014-Apr-20 01:00 150 1 gusting 4 14.4
2014-Apr-20 00:45 150 14.4
2014-Apr-20 00:30 150 15.0
2014-Apr-20 00:15 150 15.0
2014-Apr-20 00:00 143 15.0
2014-Apr-19 23:45 151 1 gusting 5 14.4
2014-Apr-19 23:30 150 14.4
2014-Apr-19 23:15 152 13.9
2014-Apr-19 23:00 149 13.9
2014-Apr-19 22:45 144 13.9
2014-Apr-19 22:30 144 13.9
2014-Apr-19 22:15 144 14.4
2014-Apr-19 22:00 144 14.4
2014-Apr-19 21:45 134 13.9
2014-Apr-19 21:30 134 13.9
2014-Apr-19 21:15 132 13.9
2014-Apr-19 21:00 126 1 gusting 5 14.4
2014-Apr-19 20:45 119 14.4
2014-Apr-19 20:30 116 14.4
2014-Apr-19 20:15 115 14.4
2014-Apr-19 20:00 108 14.4
2014-Apr-19 19:45 091 14.4
2014-Apr-19 19:30 090 14.4
2014-Apr-19 19:15 087 14.4
2014-Apr-19 19:00 087 15.0
2014-Apr-19 18:45 087 15.0
2014-Apr-19 18:30 087 15.0
2014-Apr-19 18:15 086 15.0
2014-Apr-19 18:00 084 15.6
2014-Apr-19 17:45 084 15.6
2014-Apr-19 17:30 083 15.6
2014-Apr-19 17:15 086 16.1
2014-Apr-19 17:00 086 16.1
2014-Apr-19 16:45 079 16.7
2014-Apr-19 16:30 084 17.2
2014-Apr-19 16:15 084 0 gusting 5 17.2
2014-Apr-19 16:00 067 17.8
2014-Apr-19 15:45 034 17.8
2014-Apr-19 15:30 058 17.8
2014-Apr-19 15:15 042 0 gusting 6 17.8
2014-Apr-19 15:00 040 0 gusting 7 17.8
2014-Apr-19 14:45 046 0 gusting 7 18.3
2014-Apr-19 14:30 088 0 gusting 7 18.3
2014-Apr-19 14:15 067 18.3
2014-Apr-19 14:00 044 0 gusting 6 18.9
2014-Apr-19 13:45 032 1 gusting 9 18.3
2014-Apr-19 13:30 074 0 gusting 7 18.9
2014-Apr-19 13:15 031 0 gusting 6 18.9
2014-Apr-19 13:00 058 1 gusting 7 18.9
2014-Apr-19 12:45 063 18.3
2014-Apr-19 12:30 072 0 gusting 8 18.9
2014-Apr-19 12:14 034 0 gusting 7 18.9
2014-Apr-19 11:59 046 2 gusting 9 18.9
2014-Apr-19 11:44 036 0 gusting 7 19.4
2014-Apr-19 11:29 061 1 gusting 10 18.9
2014-Apr-19 11:14 053 0 gusting 7 18.9
2014-Apr-19 10:59 070 19.4
2014-Apr-19 10:44 068 19.4
2014-Apr-19 10:29 042 20.0
2014-Apr-19 10:14 053 0 gusting 6 20.6
2014-Apr-19 09:59 337 21.7
2014-Apr-19 09:44 015 21.7
2014-Apr-19 09:29 093 21.1
2014-Apr-19 09:14 115 21.1
2014-Apr-19 08:59 154 21.1
2014-Apr-19 08:44 157 20.6
2014-Apr-19 08:29 159 20.6
2014-Apr-19 08:14 159 20.0
2014-Apr-19 07:59 163 20.0
2014-Apr-19 07:44 162 18.9
2014-Apr-19 07:29 162 18.3
2014-Apr-19 07:14 162 17.8
2014-Apr-19 06:59 162 17.2
2014-Apr-19 06:44 162 16.7
2014-Apr-19 06:29 162 16.1
2014-Apr-19 06:14 162 15.6
2014-Apr-19 05:59 163 15.0
2014-Apr-19 05:44 159 3 gusting 8 15.0
2014-Apr-19 05:29 153 14.4
2014-Apr-19 05:14 157 15.0
2014-Apr-19 04:59 155 14.4
2014-Apr-19 04:44 150 14.4
2014-Apr-19 04:29 161 5 gusting 11 14.4
2014-Apr-19 04:14 172 1 gusting 6 14.4
2014-Apr-19 03:59 181 5 gusting 9 14.4
2014-Apr-19 03:44 178 2 gusting 6 15.0
2014-Apr-19 03:29 183 14.4
2014-Apr-19 03:14 181 14.4
2014-Apr-19 02:59 225 15.0
2014-Apr-19 02:43 236 15.0
2014-Apr-19 02:28 252 15.0
2014-Apr-19 02:13 272 15.6
2014-Apr-19 01:58 285 15.0
2014-Apr-19 01:43 285 15.0
2014-Apr-19 01:28 285 15.6
2014-Apr-19 01:13 285 15.0
2014-Apr-19 00:58 285 15.0
2014-Apr-19 00:43 285 15.6
2014-Apr-19 00:28 285 15.6
2014-Apr-19 00:13 285 15.6
2014-Apr-18 23:58 285 16.1
2014-Apr-18 23:43 285 15.6
2014-Apr-18 23:28 286 15.6
2014-Apr-18 23:13 282 16.1
2014-Apr-18 22:58 277 16.1
2014-Apr-18 22:43 270 16.1
2014-Apr-18 22:28 268 16.1
2014-Apr-18 22:13 253 16.7
2014-Apr-18 21:58 298 16.7
2014-Apr-18 21:43 285 17.2
2014-Apr-18 21:28 274 17.2
2014-Apr-18 21:13 275 16.7
2014-Apr-18 20:58 256 16.7
2014-Apr-18 20:43 244 0 gusting 6 16.7
2014-Apr-18 20:28 225 17.2
2014-Apr-18 20:13 224 17.2
2014-Apr-18 19:58 203 17.2
2014-Apr-18 19:43 182 17.2
2014-Apr-18 19:28 182 17.2
2014-Apr-18 19:13 182 17.2
2014-Apr-18 18:58 175 17.2
2014-Apr-18 18:43 172 17.8
2014-Apr-18 18:28 219 17.8
2014-Apr-18 18:13 157 18.3
2014-Apr-18 17:58 157 18.3
2014-Apr-18 17:43 161 18.3
2014-Apr-18 17:28 126 18.3
2014-Apr-18 17:13 119 18.9
2014-Apr-18 16:58 119 18.3
2014-Apr-18 16:28 119 18.9
2014-Apr-18 16:13 122 18.9
2014-Apr-18 15:58 118 18.9
2014-Apr-18 15:43 123 0 gusting 5 18.9
2014-Apr-18 15:28 138 20.0
2014-Apr-18 15:13 150 21.1
2014-Apr-18 14:58 133 21.7
2014-Apr-18 14:43 328 23.9
2014-Apr-18 14:28 329 22.8
2014-Apr-18 14:13 336 1 gusting 9 22.2
2014-Apr-18 13:58 329 6 gusting 9 22.8
2014-Apr-18 13:43 311 0 gusting 9 22.2
2014-Apr-18 13:28 313 21.7
2014-Apr-18 13:13 331 5 gusting 11 21.7
2014-Apr-18 12:58 340 5 gusting 11 21.7
2014-Apr-18 12:43 330 6 gusting 11 21.1
2014-Apr-18 12:28 335 5 gusting 11 21.1
2014-Apr-18 12:13 320 5 gusting 11 21.7
2014-Apr-18 11:58 321 6 gusting 12 21.7
2014-Apr-18 11:43 338 6 gusting 11 21.7
2014-Apr-18 11:28 338 4 gusting 11 22.2
2014-Apr-18 11:13 325 6 gusting 11 22.8